| time (UTC) | temp C | wind direction | speed KPH | gust KPH | rain 1hr cm | rain 24hr cm | rain mn cm | humidity % | barometer mb |
| 20260510132014 | 8 | 314 | 3.2 | 11.3 | 0.00 | 0.66 | 0.00 | 58 | 1016.3 |
| 20260510131531 | 8 | 290 | 1.6 | 11.3 | 0.00 | 0.66 | 0.00 | 61 | 1016.2 |
| 20260510131012 | 7 | 260 | 1.6 | 9.7 | 0.00 | 0.66 | 0.00 | 63 | 1016.3 |
| 20260510130510 | 7 | 309 | 3.2 | 9.7 | 0.00 | 0.66 | 0.00 | 65 | 1016.2 |
| 20260510130029 | 7 | 282 | 3.2 | 9.7 | 0.00 | 0.66 | 0.00 | 66 | 1016.2 |
| 20260510125510 | 7 | 271 | 3.2 | 12.9 | 0.00 | 0.66 | 0.00 | 67 | 1016.1 |
| 20260510125013 | 7 | 322 | 3.2 | 12.9 | 0.00 | 0.66 | 0.00 | 71 | 1016.1 |
| 20260510124532 | 7 | 283 | 4.8 | 12.9 | 0.00 | 0.66 | 0.00 | 70 | 1016.0 |
| 20260510124014 | 6 | 284 | 1.6 | 9.7 | 0.00 | 0.66 | 0.00 | 71 | 1016.0 |
| 20260510123510 | 6 | 323 | 3.2 | 9.7 | 0.00 | 0.66 | 0.00 | 71 | 1015.9 |
| 20260510123032 | 6 | 272 | 3.2 | 9.7 | 0.00 | 0.66 | 0.00 | 73 | 1015.8 |
| 20260510122513 | 6 | 323 | 3.2 | 8.0 | 0.00 | 0.66 | 0.00 | 74 | 1015.8 |
| 20260510122011 | 6 | 329 | 3.2 | 8.0 | 0.00 | 0.66 | 0.00 | 75 | 1015.8 |
| 20260510121531 | 6 | 285 | 1.6 | 4.8 | 0.00 | 0.66 | 0.00 | 75 | 1015.8 |
| 20260510121015 | 5 | 0 | 0.0 | 4.8 | 0.00 | 0.66 | 0.00 | 77 | 1015.7 |
| 20260510120514 | 5 | 0 | 0.0 | 0.0 | 0.00 | 0.66 | 0.00 | 79 | 1015.8 |
| 20260510120034 | 5 | 0 | 0.0 | 0.0 | 0.00 | 0.66 | 0.00 | 80 | 1015.6 |
| 20260510115514 | 5 | 0 | 0.0 | 0.0 | 0.00 | 0.66 | 0.00 | 80 | 1015.6 |
| 20260510115011 | 4 | 0 | 0.0 | 0.0 | 0.00 | 0.66 | 0.00 | 80 | 1015.5 |
| 20260510114531 | 4 | 0 | 0.0 | 3.2 | 0.00 | 0.66 | 0.00 | 81 | 1015.5 |
| 20260510114013 | 3 | 0 | 0.0 | 3.2 | 0.00 | 0.66 | 0.00 | 83 | 1015.4 |
| 20260510113513 | 3 | 288 | 0.0 | 3.2 | 0.00 | 0.66 | 0.00 | 85 | 1015.3 |
| 20260510113028 | 2 | 0 | 0.0 | 3.2 | 0.00 | 0.66 | 0.00 | 87 | 1015.2 |
| 20260510112510 | 2 | 0 | 0.0 | 3.2 | 0.00 | 0.66 | 0.00 | 88 | 1015.1 |
| 20260510112015 | 2 | 0 | 0.0 | 3.2 | 0.00 | 0.66 | 0.00 | 89 | 1015.1 |
| 20260510111532 | 2 | 0 | 0.0 | 0.0 | 0.00 | 0.66 | 0.00 | 89 | 1015.0 |
| 20260510111013 | 2 | 0 | 0.0 | 0.0 | 0.00 | 0.66 | 0.00 | 88 | 1014.9 |
| 20260510110517 | 2 | 0 | 0.0 | 0.0 | 0.00 | 0.66 | 0.00 | 88 | 1014.8 |
| 20260510110034 | 2 | 0 | 0.0 | 0.0 | 0.00 | 0.66 | 0.00 | 88 | 1014.8 |
| 20260510105512 | 2 | 0 | 0.0 | 0.0 | 0.00 | 0.66 | 0.00 | 88 | 1014.6 |
| 20260510105013 | 2 | 0 | 0.0 | 0.0 | 0.00 | 0.66 | 0.00 | 88 | 1014.6 |
| 20260510104530 | 2 | 0 | 0.0 | 0.0 | 0.00 | 0.66 | 0.00 | 88 | 1014.6 |
| 20260510104015 | 1 | 0 | 0.0 | 0.0 | 0.00 | 0.66 | 0.00 | 88 | 1014.5 |
| 20260510103512 | 1 | 0 | 0.0 | 0.0 | 0.00 | 0.66 | 0.00 | 88 | 1014.3 |
| 20260510103029 | 1 | 0 | 0.0 | 0.0 | 0.00 | 0.66 | 0.00 | 89 | 1014.4 |
| 20260510102513 | 1 | 0 | 0.0 | 0.0 | 0.00 | 0.66 | 0.00 | 89 | 1014.2 |
| 20260510102014 | 1 | 0 | 0.0 | 0.0 | 0.00 | 0.66 | 0.00 | 90 | 1014.2 |
| 20260510101530 | 1 | 0 | 0.0 | 0.0 | 0.00 | 0.66 | 0.00 | 89 | 1014.0 |
| 20260510101013 | 1 | 0 | 0.0 | 0.0 | 0.00 | 0.66 | 0.00 | 89 | 1014.0 |
| 20260510100513 | 1 | 0 | 0.0 | 0.0 | 0.00 | 0.66 | 0.00 | 89 | 1013.9 |
| 20260510100043 | 1 | 0 | 0.0 | 0.0 | 0.00 | 0.66 | 0.00 | 89 | 1013.8 |
| 20260510095513 | 1 | 0 | 0.0 | 0.0 | 0.00 | 0.66 | 0.00 | 88 | 1013.8 |
| 20260510095012 | 1 | 0 | 0.0 | 0.0 | 0.00 | 0.66 | 0.00 | 88 | 1013.7 |
| 20260510094532 | 1 | 0 | 0.0 | 0.0 | 0.00 | 0.66 | 0.00 | 88 | 1013.5 |
| 20260510094012 | 1 | 0 | 0.0 | 0.0 | 0.00 | 0.66 | 0.00 | 87 | 1013.4 |
| 20260510093514 | 1 | 0 | 0.0 | 0.0 | 0.00 | 0.66 | 0.00 | 87 | 1013.3 |
| 20260510093040 | 1 | 0 | 0.0 | 0.0 | 0.00 | 0.66 | 0.00 | 87 | 1013.2 |
| 20260510092514 | 1 | 0 | 0.0 | 0.0 | 0.00 | 0.66 | 0.00 | 87 | 1013.2 |
| 20260510092013 | 1 | 0 | 0.0 | 0.0 | 0.00 | 0.66 | 0.00 | 87 | 1013.0 |
| 20260510091532 | 1 | 0 | 0.0 | 0.0 | 0.00 | 0.66 | 0.00 | 86 | 1012.9 |
| 20260510091013 | 1 | 0 | 0.0 | 0.0 | 0.00 | 0.66 | 0.00 | 86 | 1012.9 |
| 20260510090513 | 1 | 0 | 0.0 | 0.0 | 0.00 | 0.66 | 0.00 | 86 | 1012.6 |
| 20260510090035 | 1 | 0 | 0.0 | 0.0 | 0.00 | 0.66 | 0.00 | 86 | 1012.5 |
| 20260510085512 | 1 | 0 | 0.0 | 0.0 | 0.00 | 0.66 | 0.00 | 86 | 1012.5 |
| 20260510085016 | 1 | 0 | 0.0 | 0.0 | 0.00 | 0.66 | 0.00 | 85 | 1012.4 |
| 20260510084534 | 1 | 0 | 0.0 | 0.0 | 0.00 | 0.66 | 0.00 | 85 | 1012.3 |
| 20260510084014 | 2 | 0 | 0.0 | 0.0 | 0.00 | 0.66 | 0.00 | 85 | 1012.2 |
| 20260510083514 | 2 | 0 | 0.0 | 0.0 | 0.00 | 0.66 | 0.00 | 84 | 1012.1 |
| 20260510083033 | 2 | 0 | 0.0 | 0.0 | 0.00 | 0.66 | 0.00 | 84 | 1012.0 |
| 20260510082512 | 2 | 0 | 0.0 | 0.0 | 0.00 | 0.66 | 0.00 | 84 | 1012.0 |
| 20260510082012 | 2 | 0 | 0.0 | 0.0 | 0.00 | 0.66 | 0.00 | 83 | 1011.9 |
| 20260510081529 | 2 | 0 | 0.0 | 0.0 | 0.00 | 0.66 | 0.00 | 83 | 1011.9 |
| 20260510081013 | 2 | 0 | 0.0 | 0.0 | 0.00 | 0.66 | 0.00 | 84 | 1011.8 |
| 20260510080514 | 2 | 0 | 0.0 | 0.0 | 0.00 | 0.66 | 0.00 | 83 | 1011.9 |
| 20260510080031 | 2 | 0 | 0.0 | 0.0 | 0.00 | 0.66 | 0.00 | 83 | 1011.8 |
| 20260510075514 | 2 | 0 | 0.0 | 0.0 | 0.00 | 0.66 | 0.00 | 83 | 1011.8 |
| 20260510075013 | 3 | 0 | 0.0 | 0.0 | 0.00 | 0.66 | 0.00 | 82 | 1011.7 |
| 20260510074530 | 3 | 0 | 0.0 | 0.0 | 0.00 | 0.66 | 0.00 | 81 | 1011.7 |
| 20260510074013 | 3 | 0 | 0.0 | 0.0 | 0.00 | 0.66 | 0.00 | 79 | 1011.6 |
| 20260510073514 | 3 | 0 | 0.0 | 0.0 | 0.00 | 0.66 | 0.00 | 78 | 1011.5 |
| 20260510073030 | 3 | 0 | 0.0 | 0.0 | 0.00 | 0.66 | 0.00 | 78 | 1011.4 |
| 20260510072513 | 3 | 0 | 0.0 | 0.0 | 0.00 | 0.66 | 0.00 | 78 | 1011.4 |
| 20260510072016 | 3 | 0 | 0.0 | 0.0 | 0.00 | 0.66 | 0.00 | 78 | 1011.4 |
| 20260510071538 | 3 | 0 | 0.0 | 0.0 | 0.00 | 0.66 | 0.00 | 77 | 1011.3 |
| 20260510071012 | 4 | 0 | 0.0 | 0.0 | 0.00 | 0.66 | 0.00 | 77 | 1011.3 |
| 20260510070516 | 4 | 0 | 0.0 | 0.0 | 0.00 | 0.66 | 0.00 | 78 | 1011.2 |
| 20260510070031 | 4 | 0 | 0.0 | 0.0 | 0.00 | 0.66 | 0.00 | 75 | 1011.2 |
| 20260510065514 | 4 | 0 | 0.0 | 0.0 | 0.00 | 0.66 | 0.00 | 75 | 1011.2 |
| 20260510065013 | 5 | 0 | 0.0 | 0.0 | 0.00 | 0.66 | 0.00 | 74 | 1011.1 |
| 20260510064530 | 5 | 0 | 0.0 | 1.6 | 0.00 | 0.66 | 0.00 | 74 | 1011.2 |
| 20260510064012 | 5 | 0 | 0.0 | 1.6 | 0.00 | 0.66 | 0.00 | 74 | 1011.2 |
| 20260510063516 | 5 | 0 | 0.0 | 3.2 | 0.00 | 0.66 | 0.00 | 73 | 1011.2 |
| 20260510063029 | 5 | 0 | 0.0 | 3.2 | 0.00 | 0.66 | 0.00 | 75 | 1011.2 |
| 20260510062511 | 5 | 0 | 0.0 | 3.2 | 0.00 | 0.66 | 0.00 | 73 | 1011.1 |
| 20260510062014 | 5 | 0 | 0.0 | 3.2 | 0.00 | 0.66 | 0.00 | 74 | 1011.1 |
| 20260510061539 | 5 | 0 | 0.0 | 3.2 | 0.00 | 0.66 | 0.00 | 73 | 1011.1 |
| 20260510061013 | 5 | 327 | 0.0 | 3.2 | 0.00 | 0.66 | 0.00 | 74 | 1011.0 |
| 20260510060515 | 5 | 0 | 0.0 | 3.2 | 0.00 | 0.66 | 0.00 | 74 | 1011.0 |
| 20260510060030 | 5 | 0 | 0.0 | 0.0 | 0.00 | 0.66 | 0.00 | 73 | 1011.0 |
| 20260510055512 | 5 | 0 | 0.0 | 0.0 | 0.00 | 0.66 | 0.00 | 74 | 1011.1 |
| 20260510055011 | 6 | 0 | 0.0 | 1.6 | 0.00 | 0.66 | 0.00 | 74 | 1011.0 |
| 20260510054532 | 6 | 0 | 0.0 | 3.2 | 0.00 | 0.66 | 0.00 | 73 | 1011.0 |
| 20260510054014 | 6 | 0 | 0.0 | 3.2 | 0.00 | 0.66 | 0.00 | 71 | 1010.9 |
| 20260510053514 | 6 | 329 | 0.0 | 3.2 | 0.00 | 0.66 | 0.00 | 71 | 1010.8 |
| 20260510053031 | 6 | 337 | 0.0 | 3.2 | 0.00 | 0.66 | 0.00 | 71 | 1010.6 |
| 20260510052517 | 6 | 0 | 0.0 | 3.2 | 0.00 | 0.66 | 0.00 | 70 | 1010.5 |
| 20260510052011 | 6 | 342 | 0.0 | 4.8 | 0.00 | 0.66 | 0.00 | 70 | 1010.5 |
| 20260510051532 | 6 | 342 | 0.0 | 6.4 | 0.00 | 0.66 | 0.00 | 69 | 1010.5 |
| 20260510051011 | 7 | 342 | 0.0 | 6.4 | 0.00 | 0.66 | 0.00 | 69 | 1010.3 |
| 20260510050512 | 7 | 341 | 1.6 | 6.4 | 0.00 | 0.66 | 0.00 | 68 | 1010.2 |
| 20260510050029 | 7 | 336 | 1.6 | 6.4 | 0.00 | 0.66 | 0.00 | 67 | 1010.2 |
| 20260510045512 | 7 | 337 | 1.6 | 8.0 | 0.00 | 0.66 | 0.00 | 67 | 1010.0 |
| 20260510045013 | 7 | 333 | 3.2 | 8.0 | 0.00 | 0.66 | 0.00 | 66 | 1010.0 |
| 20260510044530 | 7 | 322 | 1.6 | 8.0 | 0.00 | 0.66 | 0.00 | 66 | 1009.9 |
| 20260510044011 | 7 | 328 | 1.6 | 6.4 | 0.00 | 0.66 | 0.00 | 67 | 1009.8 |
| 20260510043512 | 7 | 328 | 1.6 | 6.4 | 0.00 | 0.66 | 0.00 | 66 | 1009.7 |
| 20260510043034 | 7 | 294 | 0.0 | 3.2 | 0.00 | 0.66 | 0.00 | 68 | 1009.6 |
| 20260510042513 | 7 | 0 | 0.0 | 3.2 | 0.00 | 0.66 | 0.00 | 68 | 1009.6 |
| 20260510042012 | 8 | 0 | 0.0 | 6.4 | 0.00 | 0.66 | 0.00 | 67 | 1009.5 |
| 20260510041531 | 8 | 336 | 1.6 | 6.4 | 0.00 | 0.66 | 0.00 | 67 | 1009.3 |
| 20260510041011 | 8 | 352 | 0.0 | 6.4 | 0.00 | 0.66 | 0.00 | 67 | 1009.3 |
| 20260510040512 | 8 | 0 | 1.6 | 4.8 | 0.00 | 0.66 | 0.00 | 68 | 1009.3 |
| 20260510040031 | 8 | 329 | 0.0 | 3.2 | 0.00 | 0.66 | 0.00 | 67 | 1009.2 |
| 20260510035511 | 8 | 0 | 0.0 | 3.2 | 0.00 | 0.66 | 0.66 | 68 | 1009.0 |
| 20260510035011 | 8 | 0 | 0.0 | 3.2 | 0.00 | 0.66 | 0.66 | 68 | 1009.3 |
| 20260510034530 | 8 | 345 | 0.0 | 3.2 | 0.00 | 0.66 | 0.66 | 67 | 1009.2 |
| 20260510034011 | 8 | 351 | 0.0 | 3.2 | 0.00 | 0.66 | 0.66 | 67 | 1008.9 |
| 20260510033512 | 8 | 0 | 0.0 | 3.2 | 0.00 | 0.66 | 0.66 | 67 | 1008.9 |
| 20260510033031 | 8 | 353 | 0.0 | 3.2 | 0.00 | 0.66 | 0.66 | 66 | 1008.6 |
| 20260510032513 | 9 | 355 | 0.0 | 3.2 | 0.00 | 0.66 | 0.66 | 68 | 1008.5 |
| 20260510032015 | 9 | 337 | 0.0 | 6.4 | 0.00 | 0.66 | 0.66 | 65 | 1008.7 |
| 20260510031542 | 9 | 331 | 1.6 | 6.4 | 0.00 | 0.66 | 0.66 | 65 | 1008.9 |
| 20260510031011 | 9 | 341 | 0.0 | 6.4 | 0.00 | 0.66 | 0.66 | 67 | 1008.5 |
| 20260510030513 | 9 | 14 | 1.6 | 6.4 | 0.00 | 0.66 | 0.66 | 64 | 1008.6 |
| 20260510030030 | 10 | 0 | 0.0 | 6.4 | 0.00 | 0.66 | 0.66 | 66 | 1009.1 |
| 20260510025515 | 10 | 304 | 0.0 | 4.8 | 0.00 | 0.66 | 0.66 | 65 | 1008.7 |
| 20260510025013 | 10 | 9 | 1.6 | 4.8 | 0.00 | 0.66 | 0.66 | 65 | 1007.7 |
| 20260510024541 | 10 | 346 | 1.6 | 4.8 | 0.00 | 0.66 | 0.66 | 65 | 1007.8 |
| 20260510024013 | 10 | 335 | 1.6 | 4.8 | 0.00 | 0.66 | 0.66 | 64 | 1008.0 |
| 20260510023513 | 10 | 0 | 1.6 | 4.8 | 0.00 | 0.66 | 0.66 | 63 | 1007.8 |
| 20260510023029 | 10 | 335 | 1.6 | 4.8 | 0.00 | 0.66 | 0.66 | 66 | 1007.6 |
| 20260510022514 | 10 | 342 | 1.6 | 4.8 | 0.00 | 0.66 | 0.66 | 64 | 1007.6 |
| 20260510022011 | 10 | 2 | 1.6 | 6.4 | 0.00 | 0.66 | 0.66 | 64 | 1007.5 |
| 20260510021530 | 10 | 351 | 1.6 | 6.4 | 0.00 | 0.66 | 0.66 | 65 | 1007.4 |
| 20260510021011 | 10 | 0 | 0.0 | 4.8 | 0.00 | 0.66 | 0.66 | 64 | 1007.4 |
| 20260510020514 | 10 | 0 | 1.6 | 4.8 | 0.00 | 0.66 | 0.66 | 64 | 1007.2 |
| 20260510020032 | 10 | 3 | 1.6 | 4.8 | 0.00 | 0.66 | 0.66 | 63 | 1006.9 |
| 20260510015512 | 10 | 328 | 1.6 | 6.4 | 0.00 | 0.66 | 0.66 | 63 | 1006.8 |
| 20260510015012 | 11 | 351 | 1.6 | 6.4 | 0.00 | 0.66 | 0.66 | 64 | 1006.7 |
| 20260510014534 | 11 | 359 | 1.6 | 6.4 | 0.00 | 0.66 | 0.66 | 63 | 1006.5 |
| 20260510014013 | 11 | 320 | 1.6 | 8.0 | 0.00 | 0.66 | 0.66 | 62 | 1006.8 |
| 20260510013514 | 11 | 337 | 3.2 | 8.0 | 0.00 | 0.66 | 0.66 | 63 | 1006.7 |
| 20260510013029 | 11 | 322 | 1.6 | 9.7 | 0.00 | 0.66 | 0.66 | 64 | 1006.6 |
| 20260510012513 | 11 | 342 | 4.8 | 9.7 | 0.00 | 0.66 | 0.66 | 63 | 1006.5 |
| 20260510012011 | 11 | 334 | 3.2 | 9.7 | 0.00 | 0.66 | 0.66 | 64 | 1006.4 |
| 20260510011542 | 11 | 338 | 3.2 | 9.7 | 0.00 | 0.66 | 0.66 | 63 | 1006.2 |
| 20260510011011 | 11 | 332 | 3.2 | 12.9 | 0.00 | 0.66 | 0.66 | 63 | 1006.0 |
| 20260510010513 | 11 | 343 | 4.8 | 12.9 | 0.00 | 0.66 | 0.66 | 62 | 1005.9 |
| 20260510010031 | 12 | 344 | 3.2 | 9.7 | 0.00 | 0.66 | 0.66 | 63 | 1005.9 |
| 20260510005514 | 12 | 272 | 3.2 | 9.7 | 0.00 | 0.66 | 0.66 | 63 | 1005.8 |
| 20260510005013 | 12 | 333 | 3.2 | 11.3 | 0.00 | 0.66 | 0.66 | 63 | 1005.8 |
| 20260510004533 | 12 | 265 | 3.2 | 11.3 | 0.00 | 0.66 | 0.66 | 63 | 1005.8 |
| 20260510004013 | 12 | 278 | 0.0 | 4.8 | 0.00 | 0.66 | 0.66 | 66 | 1005.5 |
| 20260510003512 | 12 | 330 | 0.0 | 3.2 | 0.00 | 0.66 | 0.66 | 65 | 1005.4 |
| 20260510003056 | 13 | 0 | 0.0 | 4.8 | 0.00 | 0.66 | 0.66 | 65 | 1005.2 |
| 20260510002516 | 13 | 253 | 1.6 | 4.8 | 0.00 | 0.66 | 0.66 | 66 | 1005.0 |
| 20260510002013 | 13 | 0 | 0.0 | 1.6 | 0.00 | 0.66 | 0.66 | 64 | 1004.9 |
| 20260510001531 | 13 | 0 | 0.0 | 3.2 | 0.00 | 0.66 | 0.66 | 63 | 1004.9 |
| 20260510001012 | 13 | 0 | 0.0 | 3.2 | 0.00 | 0.66 | 0.66 | 63 | 1004.7 |
| 20260510000513 | 13 | 310 | 0.0 | 6.4 | 0.00 | 0.66 | 0.66 | 61 | 1004.7 |
| 20260510000031 | 13 | 318 | 1.6 | 6.4 | 0.00 | 0.66 | 0.66 | 61 | 1004.6 |
| 20260509235512 | 14 | 341 | 1.6 | 6.4 | 0.00 | 0.66 | 0.66 | 60 | 1004.5 |
| 20260509235010 | 14 | 334 | 1.6 | 6.4 | 0.00 | 0.66 | 0.66 | 59 | 1004.4 |
| 20260509234530 | 15 | 337 | 1.6 | 9.7 | 0.00 | 0.66 | 0.66 | 59 | 1004.3 |
| 20260509234013 | 15 | 351 | 1.6 | 9.7 | 0.00 | 0.66 | 0.66 | 57 | 1004.1 |
| 20260509233513 | 15 | 328 | 3.2 | 9.7 | 0.00 | 0.66 | 0.66 | 57 | 1004.0 |
| 20260509233031 | 16 | 342 | 4.8 | 9.7 | 0.00 | 0.66 | 0.66 | 55 | 1003.8 |
| 20260509232512 | 16 | 351 | 1.6 | 12.9 | 0.00 | 0.66 | 0.66 | 58 | 1003.6 |
| 20260509232013 | 16 | 274 | 3.2 | 12.9 | 0.00 | 0.66 | 0.66 | 54 | 1003.5 |
| 20260509231540 | 17 | 272 | 4.8 | 11.3 | 0.00 | 0.66 | 0.66 | 55 | 1003.5 |
| 20260509231017 | 17 | 264 | 3.2 | 20.9 | 0.00 | 0.66 | 0.66 | 55 | 1003.4 |
| 20260509230511 | 17 | 251 | 6.4 | 22.5 | 0.00 | 0.66 | 0.66 | 53 | 1003.4 |
| 20260509230034 | 17 | 266 | 8.0 | 22.5 | 0.00 | 0.66 | 0.66 | 53 | 1003.3 |
| 20260509225512 | 17 | 279 | 3.2 | 16.1 | 0.00 | 0.66 | 0.66 | 60 | 1003.2 |
| 20260509225012 | 16 | 276 | 4.8 | 16.1 | 0.00 | 0.66 | 0.66 | 66 | 1003.1 |
| 20260509224534 | 16 | 296 | 0.0 | 6.4 | 0.00 | 0.66 | 0.66 | 69 | 1003.1 |
| 20260509224013 | 16 | 0 | 0.0 | 6.4 | 0.00 | 0.66 | 0.66 | 67 | 1002.9 |
| 20260509223512 | 16 | 0 | 0.0 | 9.7 | 0.00 | 0.66 | 0.66 | 68 | 1002.9 |
| 20260509223030 | 16 | 0 | 0.0 | 9.7 | 0.00 | 0.66 | 0.66 | 69 | 1002.9 |
| 20260509222513 | 16 | 252 | 1.6 | 9.7 | 0.00 | 0.66 | 0.66 | 67 | 1002.7 |
| 20260509222014 | 16 | 289 | 0.0 | 9.7 | 0.00 | 0.66 | 0.66 | 70 | 1002.7 |
| 20260509221529 | 16 | 0 | 0.0 | 4.8 | 0.00 | 0.66 | 0.66 | 71 | 1002.7 |
| 20260509221010 | 16 | 0 | 0.0 | 4.8 | 0.00 | 0.66 | 0.66 | 70 | 1002.5 |
| 20260509220512 | 16 | 0 | 0.0 | 4.8 | 0.00 | 0.66 | 0.66 | 72 | 1002.6 |
| 20260509220032 | 15 | 0 | 0.0 | 4.8 | 0.00 | 0.66 | 0.66 | 72 | 1002.5 |
| 20260509215514 | 15 | 0 | 0.0 | 4.8 | 0.00 | 0.66 | 0.66 | 72 | 1002.4 |
| 20260509215013 | 15 | 0 | 0.0 | 4.8 | 0.00 | 0.66 | 0.66 | 74 | 1002.3 |
| 20260509214532 | 15 | 0 | 1.6 | 8.0 | 0.00 | 0.66 | 0.66 | 76 | 1002.3 |
| 20260509214013 | 15 | 247 | 1.6 | 8.0 | 0.00 | 0.66 | 0.66 | 78 | 1002.4 |
| 20260509213516 | 14 | 192 | 1.6 | 9.7 | 0.00 | 0.66 | 0.66 | 79 | 1002.4 |
| 20260509213030 | 13 | 256 | 3.2 | 9.7 | 0.00 | 0.66 | 0.66 | 79 | 1002.5 |
| 20260509212511 | 13 | 223 | 1.6 | 9.7 | 0.00 | 0.66 | 0.66 | 81 | 1002.5 |
| 20260509212017 | 13 | 204 | 1.6 | 9.7 | 0.00 | 0.66 | 0.66 | 81 | 1002.5 |
| 20260509211535 | 12 | 229 | 1.6 | 6.4 | 0.00 | 0.66 | 0.66 | 80 | 1002.6 |
| 20260509211012 | 12 | 199 | 1.6 | 8.0 | 0.00 | 0.66 | 0.66 | 79 | 1002.4 |
| 20260509210512 | 12 | 0 | 1.6 | 8.0 | 0.00 | 0.66 | 0.66 | 79 | 1002.6 |
| 20260509210032 | 12 | 218 | 3.2 | 12.9 | 0.05 | 0.66 | 0.66 | 80 | 1002.8 |
| 20260509205513 | 13 | 214 | 3.2 | 14.5 | 0.25 | 0.66 | 0.66 | 82 | 1002.9 |
| 20260509205014 | 13 | 233 | 3.2 | 14.5 | 0.41 | 0.66 | 0.66 | 83 | 1003.0 |
| 20260509204530 | 12 | 205 | 6.4 | 16.1 | 0.66 | 0.66 | 0.66 | 83 | 1002.8 |
| 20260509204016 | 12 | 227 | 4.8 | 16.1 | 0.66 | 0.66 | 0.66 | 86 | 1002.7 |
| 20260509203513 | 11 | 224 | 1.6 | 12.9 | 0.66 | 0.66 | 0.66 | 88 | 1002.7 |
| 20260509203036 | 11 | 167 | 3.2 | 12.9 | 0.66 | 0.66 | 0.66 | 89 | 1002.7 |
| 20260509202512 | 10 | 191 | 0.0 | 4.8 | 0.66 | 0.66 | 0.66 | 89 | 1002.8 |
| 20260509202012 | 10 | 138 | 1.6 | 4.8 | 0.66 | 0.66 | 0.66 | 88 | 1002.7 |
| 20260509201533 | 10 | 244 | 0.0 | 8.0 | 0.66 | 0.66 | 0.66 | 88 | 1002.9 |
| 20260509201012 | 10 | 44 | 1.6 | 11.3 | 0.66 | 0.66 | 0.66 | 85 | 1002.9 |
| 20260509200512 | 10 | 272 | 3.2 | 25.7 | 0.66 | 0.66 | 0.66 | 84 | 1002.9 |
| 20260509200030 | 10 | 206 | 4.8 | 25.7 | 0.58 | 0.58 | 0.58 | 81 | 1003.2 |
| 20260509195518 | 12 | 200 | 4.8 | 25.7 | 0.36 | 0.36 | 0.36 | 76 | 1003.7 |
| 20260509195013 | 14 | 215 | 9.7 | 25.7 | 0.23 | 0.23 | 0.23 | 70 | 1003.5 |
| 20260509194536 | 16 | 231 | 4.8 | 16.1 | 0.00 | 0.00 | 0.00 | 70 | 1002.5 |
| 20260509194011 | 16 | 241 | 6.4 | 19.3 | 0.00 | 0.00 | 0.00 | 68 | 1001.9 |
| 20260509193512 | 16 | 197 | 8.0 | 22.5 | 0.00 | 0.00 | 0.00 | 66 | 1001.8 |
| 20260509193032 | 16 | 190 | 8.0 | 22.5 | 0.00 | 0.00 | 0.00 | 66 | 1001.8 |
| 20260509192514 | 16 | 170 | 9.7 | 24.1 | 0.00 | 0.00 | 0.00 | 65 | 1001.9 |
| 20260509192013 | 16 | 286 | 4.8 | 24.1 | 0.00 | 0.00 | 0.00 | 64 | 1001.8 |
| 20260509191530 | 17 | 206 | 6.4 | 19.3 | 0.00 | 0.00 | 0.00 | 63 | 1001.6 |
| 20260509191015 | 17 | 185 | 6.4 | 16.1 | 0.00 | 0.00 | 0.00 | 64 | 1001.6 |
| 20260509190512 | 17 | 195 | 4.8 | 20.9 | 0.00 | 0.00 | 0.00 | 64 | 1001.7 |
| 20260509190034 | 17 | 185 | 6.4 | 20.9 | 0.00 | 0.00 | 0.00 | 64 | 1002.0 |
| 20260509185514 | 17 | 145 | 8.0 | 19.3 | 0.00 | 0.00 | 0.00 | 62 | 1002.0 |
| 20260509185012 | 17 | 194 | 8.0 | 22.5 | 0.00 | 0.00 | 0.00 | 61 | 1002.1 |
| 20260509184534 | 17 | 192 | 11.3 | 22.5 | 0.00 | 0.00 | 0.00 | 60 | 1002.2 |
| 20260509184012 | 17 | 206 | 8.0 | 24.1 | 0.00 | 0.00 | 0.00 | 59 | 1002.0 |
| 20260509183511 | 18 | 211 | 11.3 | 30.6 | 0.00 | 0.00 | 0.00 | 58 | 1001.9 |
| 20260509183033 | 18 | 192 | 8.0 | 30.6 | 0.00 | 0.00 | 0.00 | 59 | 1001.8 |
| 20260509182511 | 18 | 210 | 12.9 | 30.6 | 0.00 | 0.00 | 0.00 | 59 | 1001.7 |
| 20260509182011 | 18 | 180 | 9.7 | 25.7 | 0.00 | 0.00 | 0.00 | 62 | 1001.7 |
| 20260509181542 | 17 | 147 | 6.4 | 25.7 | 0.00 | 0.00 | 0.00 | 60 | 1002.1 |
| 20260509181019 | 17 | 207 | 9.7 | 20.9 | 0.00 | 0.00 | 0.00 | 61 | 1002.0 |
| 20260509180516 | 17 | 180 | 8.0 | 20.9 | 0.00 | 0.00 | 0.00 | 63 | 1002.0 |
| 20260509180030 | 17 | 133 | 6.4 | 17.7 | 0.00 | 0.00 | 0.00 | 63 | 1002.3 |
| 20260509175513 | 17 | 180 | 6.4 | 19.3 | 0.00 | 0.00 | 0.00 | 63 | 1002.6 |
| 20260509175011 | 17 | 201 | 8.0 | 20.9 | 0.00 | 0.00 | 0.00 | 61 | 1002.7 |
| 20260509174532 | 17 | 185 | 3.2 | 20.9 | 0.00 | 0.00 | 0.00 | 59 | 1002.9 |
| 20260509174012 | 17 | 164 | 6.4 | 22.5 | 0.00 | 0.00 | 0.00 | 55 | 1003.0 |
| 20260509173513 | 18 | 112 | 8.0 | 30.6 | 0.00 | 0.00 | 0.00 | 57 | 1002.7 |
| 20260509173032 | 18 | 165 | 12.9 | 30.6 | 0.00 | 0.00 | 0.00 | 57 | 1002.4 |
| 20260509172513 | 18 | 164 | 6.4 | 22.5 | 0.00 | 0.00 | 0.00 | 57 | 1002.0 |
| 20260509172013 | 18 | 171 | 9.7 | 24.1 | 0.00 | 0.00 | 0.00 | 56 | 1002.2 |
| 20260509171532 | 18 | 54 | 8.0 | 25.7 | 0.00 | 0.00 | 0.00 | 55 | 1002.3 |
| 20260509171013 | 18 | 158 | 12.9 | 25.7 | 0.00 | 0.00 | 0.00 | 52 | 1002.3 |
| 20260509170512 | 18 | 191 | 11.3 | 20.9 | 0.00 | 0.00 | 0.00 | 53 | 1002.4 |
| 20260509170030 | 18 | 168 | 9.7 | 20.9 | 0.00 | 0.00 | 0.00 | 54 | 1002.6 |
| 20260509165511 | 18 | 154 | 6.4 | 20.9 | 0.00 | 0.00 | 0.00 | 54 | 1002.7 |
| 20260509165011 | 17 | 185 | 8.0 | 20.9 | 0.00 | 0.00 | 0.00 | 55 | 1003.0 |
| 20260509164529 | 17 | 180 | 6.4 | 17.7 | 0.00 | 0.00 | 0.00 | 56 | 1003.0 |
| 20260509164014 | 17 | 145 | 8.0 | 24.1 | 0.00 | 0.00 | 0.00 | 57 | 1003.2 |
| 20260509163517 | 17 | 164 | 8.0 | 24.1 | 0.00 | 0.00 | 0.00 | 58 | 1003.3 |
| 20260509163033 | 17 | 218 | 8.0 | 24.1 | 0.00 | 0.00 | 0.00 | 57 | 1003.3 |
| 20260509162514 | 17 | 147 | 9.7 | 16.1 | 0.00 | 0.00 | 0.00 | 59 | 1003.4 |
| 20260509162015 | 16 | 202 | 4.8 | 24.1 | 0.00 | 0.00 | 0.00 | 62 | 1003.4 |
| 20260509161534 | 16 | 180 | 8.0 | 24.1 | 0.00 | 0.00 | 0.00 | 62 | 1003.5 |
| 20260509161011 | 16 | 206 | 8.0 | 19.3 | 0.00 | 0.00 | 0.00 | 62 | 1003.9 |
| 20260509160515 | 16 | 193 | 4.8 | 17.7 | 0.00 | 0.00 | 0.00 | 66 | 1004.0 |
| 20260509160032 | 16 | 195 | 6.4 | 17.7 | 0.00 | 0.00 | 0.00 | 65 | 1004.1 |
| 20260509155514 | 15 | 175 | 3.2 | 12.9 | 0.00 | 0.00 | 0.00 | 69 | 1004.0 |
| 20260509155014 | 15 | 201 | 3.2 | 9.7 | 0.00 | 0.00 | 0.00 | 70 | 1004.1 |
| 20260509154531 | 15 | 170 | 4.8 | 9.7 | 0.00 | 0.00 | 0.00 | 69 | 1003.8 |
| 20260509154013 | 15 | 175 | 3.2 | 20.9 | 0.00 | 0.00 | 0.00 | 69 | 1004.7 |
| 20260509153511 | 15 | 180 | 3.2 | 20.9 | 0.00 | 0.00 | 0.00 | 69 | 1005.3 |
| 20260509153031 | 15 | 251 | 4.8 | 20.9 | 0.00 | 0.00 | 0.00 | 69 | 1005.3 |
| 20260509152511 | 15 | 239 | 3.2 | 12.9 | 0.00 | 0.00 | 0.00 | 69 | 1005.4 |
| 20260509152013 | 15 | 233 | 3.2 | 11.3 | 0.00 | 0.00 | 0.00 | 69 | 1005.4 |
| 20260509151529 | 15 | 246 | 1.6 | 11.3 | 0.00 | 0.00 | 0.00 | 69 | 1005.3 |
| 20260509151014 | 15 | 283 | 1.6 | 9.7 | 0.00 | 0.00 | 0.00 | 68 | 1005.3 |
| 20260509150514 | 15 | 191 | 4.8 | 17.7 | 0.00 | 0.00 | 0.00 | 68 | 1005.2 |
| 20260509150030 | 15 | 180 | 4.8 | 17.7 | 0.00 | 0.00 | 0.00 | 68 | 1005.0 |
| 20260509145515 | 15 | 150 | 4.8 | 16.1 | 0.00 | 0.00 | 0.00 | 69 | 1005.0 |
| 20260509145012 | 15 | 164 | 6.4 | 16.1 | 0.00 | 0.00 | 0.00 | 70 | 1004.9 |
| 20260509144537 | 14 | 172 | 3.2 | 16.1 | 0.00 | 0.00 | 0.00 | 73 | 1004.8 |
| 20260509144012 | 14 | 210 | 6.4 | 19.3 | 0.00 | 0.00 | 0.00 | 73 | 1004.8 |
| 20260509143511 | 13 | 206 | 4.8 | 20.9 | 0.00 | 0.00 | 0.00 | 73 | 1005.0 |
| 20260509143030 | 13 | 224 | 6.4 | 20.9 | 0.00 | 0.00 | 0.00 | 73 | 1005.0 |
| 20260509142511 | 13 | 245 | 3.2 | 14.5 | 0.00 | 0.00 | 0.00 | 74 | 1005.0 |
| 20260509142012 | 13 | 224 | 1.6 | 16.1 | 0.00 | 0.00 | 0.00 | 78 | 1004.9 |
| 20260509141529 | 12 | 202 | 4.8 | 16.1 | 0.00 | 0.00 | 0.00 | 77 | 1004.8 |
| 20260509141015 | 12 | 151 | 6.4 | 14.5 | 0.00 | 0.00 | 0.00 | 76 | 1004.8 |
| 20260509140510 | 12 | 226 | 4.8 | 14.5 | 0.00 | 0.00 | 0.00 | 78 | 1005.0 |
| 20260509140029 | 12 | 175 | 4.8 | 14.5 | 0.00 | 0.00 | 0.00 | 77 | 1005.0 |
| 20260509135512 | 12 | 180 | 4.8 | 16.1 | 0.00 | 0.00 | 0.00 | 78 | 1005.0 |
| 20260509135013 | 12 | 149 | 4.8 | 17.7 | 0.00 | 0.00 | 0.00 | 78 | 1005.1 |
| 20260509134530 | 12 | 149 | 8.0 | 17.7 | 0.00 | 0.00 | 0.00 | 77 | 1005.2 |
| 20260509134011 | 12 | 175 | 3.2 | 11.3 | 0.00 | 0.00 | 0.00 | 78 | 1005.2 |
| 20260509133511 | 12 | 137 | 4.8 | 14.5 | 0.00 | 0.00 | 0.00 | 78 | 1005.4 |
| 20260509133033 | 12 | 154 | 6.4 | 14.5 | 0.00 | 0.00 | 0.00 | 81 | 1005.3 |
| 20260509132513 | 11 | 185 | 4.8 | 14.5 | 0.00 | 0.00 | 0.00 | 81 | 1005.5 |